Time,TemperatureF,DewpointF,PressureIn,WindDirection,WindDirectionDegrees,WindSpeedMPH,WindSpeedGustMPH,Humidity,HourlyPrecipIn,Conditions,Clouds,dailyrainin,SoftwareType,DateUTC
2014-12-19 00:00:00,49.1,42.6,30.17,WNW,290,0.0,0.0,78,0.00,,,0.00,meteobridge,2014-12-19 07:00:00,
2014-12-19 00:06:00,48.9,42.4,30.17,WNW,290,0.0,0.0,78,0.00,,,0.00,meteobridge,2014-12-19 07:06:00,
2014-12-19 00:11:00,48.9,42.6,30.17,WNW,290,0.0,0.0,79,0.00,,,0.00,meteobridge,2014-12-19 07:11:00,
2014-12-19 00:16:00,48.9,42.6,30.17,WNW,290,0.0,0.0,79,0.00,,,0.00,meteobridge,2014-12-19 07:16:00,
2014-12-19 00:21:00,48.9,42.6,30.17,WNW,290,0.0,0.0,79,0.00,,,0.00,meteobridge,2014-12-19 07:21:00,
2014-12-19 00:27:00,48.7,42.4,30.17,WNW,290,0.0,0.0,79,0.00,,,0.00,meteobridge,2014-12-19 07:27:00,
2014-12-19 00:32:00,48.7,42.4,30.17,WNW,290,0.0,0.0,79,0.00,,,0.00,meteobridge,2014-12-19 07:32:00,
2014-12-19 00:37:00,48.6,42.3,30.17,WNW,290,0.0,0.0,79,0.00,,,0.00,meteobridge,2014-12-19 07:37:00,
2014-12-19 00:42:00,48.4,42.4,30.17,WNW,290,0.0,0.0,80,0.00,,,0.00,meteobridge,2014-12-19 07:42:00,
2014-12-19 00:47:00,48.0,42.1,30.17,WNW,290,0.0,0.0,80,0.00,,,0.00,meteobridge,2014-12-19 07:47:00,
2014-12-19 00:52:00,47.8,41.9,30.17,WNW,290,0.0,0.0,80,0.00,,,0.00,meteobridge,2014-12-19 07:52:00,
2014-12-19 00:58:00,47.7,42.1,30.16,WNW,290,0.0,0.0,81,0.00,,,0.00,meteobridge,2014-12-19 07:58:00,
2014-12-19 01:03:00,47.7,42.4,30.16,WNW,290,0.0,0.0,82,0.00,,,0.00,meteobridge,2014-12-19 08:03:00,
2014-12-19 01:08:00,47.5,42.3,30.16,WNW,290,0.0,0.0,82,0.00,,,0.00,meteobridge,2014-12-19 08:08:00,
2014-12-19 01:13:00,47.5,42.3,30.16,WNW,290,0.0,0.0,82,0.00,,,0.00,meteobridge,2014-12-19 08:13:00,
2014-12-19 01:18:00,47.3,42.1,30.16,WNW,290,0.0,0.0,82,0.00,,,0.00,meteobridge,2014-12-19 08:18:00,
2014-12-19 01:23:00,47.3,42.4,30.16,WNW,290,0.0,0.0,83,0.00,,,0.00,meteobridge,2014-12-19 08:23:00,
2014-12-19 01:28:00,47.5,42.6,30.16,WNW,294,2.0,5.0,83,0.00,,,0.00,meteobridge,2014-12-19 08:28:00,
2014-12-19 01:33:00,48.6,43.3,30.16,NE,36,4.0,6.0,82,0.00,,,0.00,meteobridge,2014-12-19 08:33:00,
2014-12-19 01:38:00,49.5,43.5,30.16,NE,36,0.0,6.0,80,0.00,,,0.00,meteobridge,2014-12-19 08:38:00,
2014-12-19 01:43:00,49.6,43.0,30.16,NE,36,0.9,3.0,78,0.00,,,0.00,meteobridge,2014-12-19 08:43:00,
2014-12-19 01:49:00,49.8,43.0,30.16,NE,36,0.0,1.0,77,0.00,,,0.00,meteobridge,2014-12-19 08:49:00,
2014-12-19 01:54:00,50.0,43.2,30.16,NE,36,0.0,3.0,77,0.00,,,0.00,meteobridge,2014-12-19 08:54:00,
2014-12-19 01:59:00,50.0,43.2,30.16,NE,36,0.0,3.0,77,0.00,,,0.00,meteobridge,2014-12-19 08:59:00,
2014-12-19 02:05:00,50.2,43.0,30.16,NE,36,0.0,0.0,76,0.00,,,0.00,meteobridge,2014-12-19 09:05:00,
2014-12-19 02:10:00,50.4,43.2,30.16,NE,37,2.0,5.0,76,0.00,,,0.00,meteobridge,2014-12-19 09:10:00,
2014-12-19 02:15:00,50.5,43.3,30.16,NE,48,4.9,8.0,76,0.00,,,0.00,meteobridge,2014-12-19 09:15:00,
2014-12-19 02:20:00,50.5,43.0,30.16,ENE,69,6.0,10.0,75,0.00,,,0.00,meteobridge,2014-12-19 09:20:00,
2014-12-19 02:25:00,50.5,43.0,30.16,NE,51,4.9,8.0,75,0.00,,,0.00,meteobridge,2014-12-19 09:25:00,
2014-12-19 02:30:00,50.7,43.2,30.16,ENE,59,6.0,8.0,75,0.00,,,0.00,meteobridge,2014-12-19 09:30:00,
2014-12-19 02:35:00,50.7,42.8,30.16,ENE,58,6.0,6.0,74,0.00,,,0.00,meteobridge,2014-12-19 09:35:00,
2014-12-19 02:40:00,50.7,42.8,30.16,NE,50,4.9,8.0,74,0.00,,,0.00,meteobridge,2014-12-19 09:40:00,
2014-12-19 02:45:00,50.7,42.8,30.16,ENE,77,2.0,12.0,74,0.00,,,0.00,meteobridge,2014-12-19 09:45:00,
2014-12-19 02:50:00,50.7,42.8,30.16,ENE,61,6.9,11.0,74,0.00,,,0.00,meteobridge,2014-12-19 09:50:00,
2014-12-19 02:55:00,50.5,42.6,30.17,ENE,67,4.9,7.0,74,0.00,,,0.00,meteobridge,2014-12-19 09:55:00,
2014-12-19 03:01:00,50.7,42.8,30.17,ENE,76,6.9,12.0,74,0.00,,,0.00,meteobridge,2014-12-19 10:01:00,
2014-12-19 03:06:00,50.7,42.4,30.17,ENE,69,4.9,10.0,73,0.00,,,0.00,meteobridge,2014-12-19 10:06:00,
2014-12-19 03:11:00,50.9,42.6,30.17,NE,55,6.9,11.0,73,0.00,,,0.00,meteobridge,2014-12-19 10:11:00,
2014-12-19 03:16:00,50.9,42.6,30.17,ENE,76,6.9,10.0,73,0.00,,,0.00,meteobridge,2014-12-19 10:16:00,
2014-12-19 03:21:00,50.7,42.4,30.17,NE,47,4.0,10.0,73,0.00,,,0.00,meteobridge,2014-12-19 10:21:00,
2014-12-19 03:26:00,50.7,42.4,30.17,ENE,71,6.0,10.0,73,0.00,,,0.00,meteobridge,2014-12-19 10:26:00,
2014-12-19 03:31:00,50.5,42.3,30.17,ENE,75,4.9,7.0,73,0.00,,,0.00,meteobridge,2014-12-19 10:31:00,
2014-12-19 03:36:00,50.7,42.4,30.17,ENE,59,6.9,7.0,73,0.00,,,0.00,meteobridge,2014-12-19 10:36:00,
2014-12-19 03:41:00,50.7,42.4,30.17,ENE,66,4.0,7.0,73,0.00,,,0.00,meteobridge,2014-12-19 10:41:00,
2014-12-19 03:46:00,50.7,42.4,30.17,NE,51,4.0,6.0,73,0.00,,,0.00,meteobridge,2014-12-19 10:46:00,
2014-12-19 03:52:00,50.5,42.3,30.17,NE,51,0.0,6.0,73,0.00,,,0.00,meteobridge,2014-12-19 10:52:00,
2014-12-19 03:57:00,50.5,42.3,30.17,ENE,59,0.0,7.0,73,0.00,,,0.00,meteobridge,2014-12-19 10:57:00,
2014-12-19 04:02:00,50.5,42.3,30.17,NE,55,6.0,6.0,73,0.00,,,0.00,meteobridge,2014-12-19 11:02:00,
2014-12-19 04:07:00,50.7,42.1,30.17,NE,55,0.0,0.0,72,0.00,,,0.00,meteobridge,2014-12-19 11:07:00,
2014-12-19 04:12:00,50.7,42.1,30.17,NE,55,0.0,0.0,72,0.00,,,0.00,meteobridge,2014-12-19 11:12:00,
2014-12-19 04:17:00,50.7,42.1,30.17,NE,56,2.9,5.0,72,0.00,,,0.00,meteobridge,2014-12-19 11:17:00,
2014-12-19 04:23:00,50.5,41.9,30.17,NE,56,0.0,0.0,72,0.00,,,0.00,meteobridge,2014-12-19 11:23:00,
2014-12-19 04:28:00,50.4,41.7,30.17,NE,53,2.0,8.0,72,0.00,,,0.00,meteobridge,2014-12-19 11:28:00,
2014-12-19 04:33:00,50.2,41.9,30.17,NE,54,0.0,5.0,73,0.00,,,0.00,meteobridge,2014-12-19 11:33:00,
2014-12-19 04:38:00,50.2,41.9,30.17,NE,55,0.0,6.0,73,0.00,,,0.00,meteobridge,2014-12-19 11:38:00,
2014-12-19 04:43:00,50.0,42.8,30.17,NE,55,0.9,1.0,76,0.00,,,0.00,meteobridge,2014-12-19 11:43:00,
2014-12-19 04:48:00,49.8,41.9,30.17,NE,55,2.9,7.0,74,0.00,,,0.00,meteobridge,2014-12-19 11:48:00,
2014-12-19 04:53:00,50.2,41.9,30.17,NE,44,4.9,10.0,73,0.00,,,0.00,meteobridge,2014-12-19 11:53:00,
2014-12-19 04:58:00,50.4,42.1,30.17,ENE,67,2.0,6.0,73,0.00,,,0.00,meteobridge,2014-12-19 11:58:00,
2014-12-19 05:03:00,50.4,42.1,30.17,ENE,63,2.9,7.0,73,0.00,,,0.00,meteobridge,2014-12-19 12:03:00,
2014-12-19 05:08:00,50.2,41.9,30.17,ENE,61,2.0,5.0,73,0.00,,,0.00,meteobridge,2014-12-19 12:08:00,
2014-12-19 05:13:00,50.2,41.9,30.17,ENE,61,0.0,4.0,73,0.00,,,0.00,meteobridge,2014-12-19 12:13:00,
2014-12-19 05:19:00,50.4,41.7,30.18,ENE,61,0.0,0.0,72,0.00,,,0.00,meteobridge,2014-12-19 12:19:00,
2014-12-19 05:24:00,50.2,41.5,30.18,ENE,61,2.0,2.0,72,0.00,,,0.00,meteobridge,2014-12-19 12:24:00,
2014-12-19 05:30:00,49.6,41.7,30.18,ENE,61,0.0,0.0,74,0.00,,,0.00,meteobridge,2014-12-19 12:30:00,
2014-12-19 05:35:00,49.3,41.7,30.18,ENE,61,0.0,0.0,75,0.00,,,0.00,meteobridge,2014-12-19 12:35:00,
2014-12-19 05:40:00,48.9,41.4,30.18,ENE,61,0.0,0.0,75,0.00,,,0.00,meteobridge,2014-12-19 12:40:00,
2014-12-19 05:45:00,48.6,41.4,30.18,ENE,61,0.0,0.0,76,0.00,,,0.00,meteobridge,2014-12-19 12:45:00,
2014-12-19 05:50:00,48.2,42.6,30.18,ENE,61,0.0,0.0,81,0.00,,,0.00,meteobridge,2014-12-19 12:50:00,
2014-12-19 05:55:00,47.8,41.0,30.19,ENE,61,0.0,0.0,77,0.00,,,0.00,meteobridge,2014-12-19 12:55:00,
2014-12-19 06:01:00,47.5,41.0,30.19,ENE,61,0.0,0.0,78,0.00,,,0.00,meteobridge,2014-12-19 13:01:00,
2014-12-19 06:06:00,47.1,41.0,30.19,ENE,61,0.0,0.0,79,0.00,,,0.00,meteobridge,2014-12-19 13:06:00,
2014-12-19 06:12:00,46.8,40.6,30.19,ENE,61,0.0,0.0,79,0.00,,,0.00,meteobridge,2014-12-19 13:12:00,
2014-12-19 06:17:00,46.6,40.8,30.19,ENE,61,0.0,0.0,80,0.00,,,0.00,meteobridge,2014-12-19 13:17:00,
2014-12-19 06:22:00,46.2,40.5,30.19,ENE,61,0.0,0.0,80,0.00,,,0.00,meteobridge,2014-12-19 13:22:00,
2014-12-19 06:28:00,46.0,40.5,30.19,ENE,61,0.0,0.0,81,0.00,,,0.00,meteobridge,2014-12-19 13:28:00,
2014-12-19 06:33:00,45.7,40.1,30.19,ENE,61,0.0,0.0,81,0.00,,,0.00,meteobridge,2014-12-19 13:33:00,
2014-12-19 06:38:00,45.3,39.9,30.20,ENE,61,0.0,0.0,81,0.00,,,0.00,meteobridge,2014-12-19 13:38:00,
2014-12-19 06:43:00,45.1,39.7,30.20,ENE,61,0.0,0.0,81,0.00,,,0.00,meteobridge,2014-12-19 13:43:00,
2014-12-19 06:48:00,45.0,39.7,30.20,ENE,61,0.0,0.0,82,0.00,,,0.00,meteobridge,2014-12-19 13:48:00,
2014-12-19 06:53:00,44.8,39.6,30.20,ENE,61,0.0,0.0,82,0.00,,,0.00,meteobridge,2014-12-19 13:53:00,
2014-12-19 06:58:00,44.4,39.2,30.20,ENE,61,0.0,0.0,82,0.00,,,0.00,meteobridge,2014-12-19 13:58:00,
2014-12-19 07:04:00,44.2,39.4,30.20,ENE,61,0.0,0.0,83,0.00,,,0.00,meteobridge,2014-12-19 14:04:00,
2014-12-19 07:09:00,44.1,39.2,30.20,ENE,61,0.0,0.0,83,0.00,,,0.00,meteobridge,2014-12-19 14:09:00,
2014-12-19 07:14:00,43.9,39.4,30.20,ENE,61,0.0,0.0,84,0.00,,,0.00,meteobridge,2014-12-19 14:14:00,
2014-12-19 07:20:00,43.7,39.6,30.20,ENE,61,0.0,0.0,85,0.00,,,0.00,meteobridge,2014-12-19 14:20:00,
2014-12-19 07:25:00,43.5,39.4,30.20,ENE,61,0.0,0.0,85,0.00,,,0.00,meteobridge,2014-12-19 14:25:00,
2014-12-19 07:30:00,43.3,39.2,30.20,ENE,61,0.0,0.0,85,0.00,,,0.00,meteobridge,2014-12-19 14:30:00,
2014-12-19 07:35:00,43.3,39.4,30.21,ENE,61,0.0,0.0,86,0.00,,,0.00,meteobridge,2014-12-19 14:35:00,
2014-12-19 07:40:00,43.3,39.4,30.21,ENE,61,0.0,0.0,86,0.00,,,0.00,meteobridge,2014-12-19 14:40:00,
2014-12-19 07:46:00,43.3,39.4,30.21,ENE,61,0.0,0.0,86,0.00,,,0.00,meteobridge,2014-12-19 14:46:00,
2014-12-19 07:51:00,43.5,39.4,30.21,ENE,61,0.0,0.0,85,0.00,,,0.00,meteobridge,2014-12-19 14:51:00,
2014-12-19 07:56:00,43.7,39.7,30.21,ENE,61,0.0,0.0,86,0.00,,,0.00,meteobridge,2014-12-19 14:56:00,
2014-12-19 08:01:00,43.9,39.7,30.21,ENE,61,0.0,0.0,85,0.00,,,0.00,meteobridge,2014-12-19 15:01:00,
2014-12-19 08:06:00,44.1,39.9,30.21,ENE,61,0.0,0.0,85,0.00,,,0.00,meteobridge,2014-12-19 15:06:00,
2014-12-19 08:11:00,44.1,39.6,30.21,ENE,61,0.0,0.0,84,0.00,,,0.00,meteobridge,2014-12-19 15:11:00,
2014-12-19 08:16:00,44.4,39.6,30.21,ENE,61,0.0,4.0,83,0.00,,,0.00,meteobridge,2014-12-19 15:16:00,
2014-12-19 08:22:00,45.1,39.9,30.22,ENE,61,0.0,0.0,82,0.00,,,0.00,meteobridge,2014-12-19 15:22:00,
2014-12-19 08:27:00,46.4,41.2,30.22,ENE,61,0.0,0.0,82,0.00,,,0.00,meteobridge,2014-12-19 15:27:00,
2014-12-19 08:32:00,47.1,41.4,30.22,ENE,61,0.0,0.0,80,0.00,,,0.00,meteobridge,2014-12-19 15:32:00,
2014-12-19 08:37:00,47.3,41.2,30.22,ENE,61,0.0,0.0,79,0.00,,,0.00,meteobridge,2014-12-19 15:37:00,
2014-12-19 08:42:00,47.3,41.2,30.22,ENE,61,0.0,0.0,79,0.00,,,0.00,meteobridge,2014-12-19 15:42:00,
2014-12-19 08:47:00,47.1,41.0,30.23,ENE,61,0.0,0.0,79,0.00,,,0.00,meteobridge,2014-12-19 15:47:00,
2014-12-19 08:52:00,47.1,41.0,30.23,ENE,61,0.0,0.0,79,0.00,,,0.00,meteobridge,2014-12-19 15:52:00,
2014-12-19 08:57:00,46.9,41.2,30.23,ENE,61,0.0,0.0,80,0.00,,,0.00,meteobridge,2014-12-19 15:57:00,
2014-12-19 09:03:00,46.9,41.2,30.23,ENE,61,0.0,0.0,80,0.00,,,0.00,meteobridge,2014-12-19 16:03:00,
2014-12-19 09:08:00,46.9,41.2,30.24,ENE,61,0.0,0.0,80,0.00,,,0.00,meteobridge,2014-12-19 16:08:00,
2014-12-19 09:13:00,47.1,41.5,30.24,ENE,61,0.0,0.0,81,0.00,,,0.00,meteobridge,2014-12-19 16:13:00,
2014-12-19 09:18:00,47.8,42.3,30.24,ENE,61,0.0,0.0,81,0.00,,,0.00,meteobridge,2014-12-19 16:18:00,
2014-12-19 09:23:00,48.7,42.8,30.24,ENE,61,0.0,0.0,80,0.00,,,0.00,meteobridge,2014-12-19 16:23:00,
2014-12-19 09:28:00,49.6,43.7,30.24,ENE,61,0.0,0.0,80,0.00,,,0.00,meteobridge,2014-12-19 16:28:00,
2014-12-19 09:33:00,50.4,43.7,30.24,ENE,61,0.0,0.0,78,0.00,,,0.00,meteobridge,2014-12-19 16:33:00,
2014-12-19 09:39:00,50.9,43.5,30.24,ENE,61,0.0,0.0,76,0.00,,,0.00,meteobridge,2014-12-19 16:39:00,
2014-12-19 09:44:00,51.6,43.3,30.24,ENE,61,0.0,0.0,73,0.00,,,0.00,meteobridge,2014-12-19 16:44:00,
2014-12-19 09:50:00,52.5,43.3,30.24,ENE,61,0.0,0.0,71,0.00,,,0.00,meteobridge,2014-12-19 16:50:00,
2014-12-19 09:55:00,53.1,42.8,30.24,ESE,104,0.0,5.0,68,0.00,,,0.00,meteobridge,2014-12-19 16:55:00,
2014-12-19 10:00:00,53.4,41.2,30.25,ESE,115,6.0,6.0,63,0.00,,,0.00,meteobridge,2014-12-19 17:00:00,
2014-12-19 10:05:00,53.8,41.0,30.25,ESE,118,0.9,5.0,62,0.00,,,0.00,meteobridge,2014-12-19 17:05:00,
2014-12-19 10:10:00,54.0,40.8,30.25,ESE,119,4.0,9.0,61,0.00,,,0.00,meteobridge,2014-12-19 17:10:00,
2014-12-19 10:15:00,54.1,40.6,30.24,SE,140,0.0,8.0,60,0.00,,,0.00,meteobridge,2014-12-19 17:15:00,
2014-12-19 10:20:00,54.3,40.8,30.24,SE,138,4.0,8.0,60,0.00,,,0.00,meteobridge,2014-12-19 17:20:00,
2014-12-19 10:25:00,54.3,40.8,30.24,SE,136,4.9,5.0,60,0.00,,,0.00,meteobridge,2014-12-19 17:25:00,
2014-12-19 10:30:00,54.3,40.8,30.25,East,84,4.9,7.0,60,0.00,,,0.00,meteobridge,2014-12-19 17:30:00,
2014-12-19 10:35:00,54.3,40.8,30.25,East,84,0.0,0.0,60,0.00,,,0.00,meteobridge,2014-12-19 17:35:00,
2014-12-19 10:40:00,54.7,41.5,30.24,East,84,0.0,0.0,61,0.00,,,0.00,meteobridge,2014-12-19 17:40:00,
2014-12-19 10:45:00,55.0,41.4,30.24,East,84,0.0,0.0,60,0.00,,,0.00,meteobridge,2014-12-19 17:45:00,
2014-12-19 10:51:00,55.6,41.5,30.24,East,84,0.0,0.0,59,0.00,,,0.00,meteobridge,2014-12-19 17:51:00,
2014-12-19 10:56:00,55.8,41.7,30.24,East,83,0.0,1.0,59,0.00,,,0.00,meteobridge,2014-12-19 17:56:00,
2014-12-19 11:01:00,55.8,41.7,30.24,East,84,0.0,2.0,59,0.00,,,0.00,meteobridge,2014-12-19 18:01:00,
2014-12-19 11:06:00,56.1,41.5,30.24,East,84,0.0,0.0,58,0.00,,,0.00,meteobridge,2014-12-19 18:06:00,
2014-12-19 11:12:00,57.0,42.4,30.24,East,84,0.0,0.0,58,0.00,,,0.00,meteobridge,2014-12-19 18:12:00,
2014-12-19 11:17:00,57.4,42.3,30.24,East,85,0.0,6.0,57,0.00,,,0.00,meteobridge,2014-12-19 18:17:00,
2014-12-19 11:22:00,57.7,43.0,30.24,East,85,0.0,0.0,58,0.00,,,0.00,meteobridge,2014-12-19 18:22:00,
2014-12-19 11:27:00,58.1,43.3,30.23,East,85,0.0,1.0,58,0.00,,,0.00,meteobridge,2014-12-19 18:27:00,
2014-12-19 11:33:00,58.3,44.1,30.23,East,85,0.0,2.0,59,0.00,,,0.00,meteobridge,2014-12-19 18:33:00,
2014-12-19 11:38:00,58.5,44.2,30.23,East,85,0.0,0.0,59,0.00,,,0.00,meteobridge,2014-12-19 18:38:00,
2014-12-19 11:43:00,58.6,45.3,30.22,East,85,0.0,0.0,61,0.00,,,0.00,meteobridge,2014-12-19 18:43:00,
2014-12-19 11:48:00,58.6,43.9,30.22,East,85,0.0,0.0,58,0.00,,,0.00,meteobridge,2014-12-19 18:48:00,
2014-12-19 11:53:00,59.2,44.4,30.22,East,85,0.0,0.0,58,0.00,,,0.00,meteobridge,2014-12-19 18:53:00,
2014-12-19 11:59:00,59.0,43.7,30.21,East,85,0.0,0.0,57,0.00,,,0.00,meteobridge,2014-12-19 18:59:00,
2014-12-19 12:04:00,59.2,44.4,30.21,East,85,0.0,0.0,58,0.00,,,0.00,meteobridge,2014-12-19 19:04:00,
2014-12-19 12:09:00,59.4,44.1,30.20,East,85,0.0,0.0,57,0.00,,,0.00,meteobridge,2014-12-19 19:09:00,
2014-12-19 12:14:00,59.5,43.9,30.20,East,85,0.0,3.0,56,0.00,,,0.00,meteobridge,2014-12-19 19:14:00,
2014-12-19 12:19:00,59.9,43.7,30.19,East,85,0.0,4.0,55,0.00,,,0.00,meteobridge,2014-12-19 19:19:00,
2014-12-19 12:24:00,59.7,43.5,30.19,East,85,0.0,0.0,55,0.00,,,0.00,meteobridge,2014-12-19 19:24:00,
2014-12-19 12:29:00,59.9,43.7,30.19,East,85,0.0,0.0,55,0.00,,,0.00,meteobridge,2014-12-19 19:29:00,
2014-12-19 12:35:00,60.3,43.5,30.19,East,85,0.0,0.0,54,0.00,,,0.00,meteobridge,2014-12-19 19:35:00,
2014-12-19 12:40:00,60.8,43.0,30.18,East,85,0.0,3.0,52,0.00,,,0.00,meteobridge,2014-12-19 19:40:00,
2014-12-19 12:45:00,61.0,43.2,30.18,East,85,0.0,3.0,52,0.00,,,0.00,meteobridge,2014-12-19 19:45:00,
2014-12-19 12:51:00,61.0,42.8,30.17,East,85,0.0,0.0,51,0.00,,,0.00,meteobridge,2014-12-19 19:51:00,
2014-12-19 12:56:00,61.3,43.0,30.17,East,85,0.0,0.0,51,0.00,,,0.00,meteobridge,2014-12-19 19:56:00,
2014-12-19 13:01:00,61.7,42.8,30.16,East,85,0.0,0.0,50,0.00,,,0.00,meteobridge,2014-12-19 20:01:00,
2014-12-19 13:06:00,61.7,42.8,30.16,East,85,0.0,0.0,50,0.00,,,0.00,meteobridge,2014-12-19 20:06:00,
2014-12-19 13:12:00,62.1,43.2,30.16,East,85,0.0,0.0,50,0.00,,,0.00,meteobridge,2014-12-19 20:12:00,
2014-12-19 13:17:00,62.4,43.0,30.16,East,85,0.0,0.0,49,0.00,,,0.00,meteobridge,2014-12-19 20:17:00,
2014-12-19 13:22:00,62.8,43.3,30.16,East,85,0.0,0.0,49,0.00,,,0.00,meteobridge,2014-12-19 20:22:00,
2014-12-19 13:28:00,62.8,43.3,30.15,East,85,0.0,1.0,49,0.00,,,0.00,meteobridge,2014-12-19 20:28:00,
2014-12-19 13:33:00,62.6,42.6,30.15,East,85,0.0,1.0,48,0.00,,,0.00,meteobridge,2014-12-19 20:33:00,
2014-12-19 13:38:00,62.6,42.6,30.14,East,85,0.0,0.0,48,0.00,,,0.00,meteobridge,2014-12-19 20:38:00,
2014-12-19 13:43:00,62.6,42.6,30.14,East,85,0.0,0.0,48,0.00,,,0.00,meteobridge,2014-12-19 20:43:00,
2014-12-19 13:48:00,62.8,42.8,30.14,East,85,0.0,0.0,48,0.00,,,0.00,meteobridge,2014-12-19 20:48:00,
2014-12-19 13:54:00,63.0,43.0,30.14,East,85,0.0,0.0,48,0.00,,,0.00,meteobridge,2014-12-19 20:54:00,
2014-12-19 13:59:00,63.1,42.6,30.13,East,85,0.9,1.0,47,0.00,,,0.00,meteobridge,2014-12-19 20:59:00,
2014-12-19 14:04:00,63.3,42.8,30.13,East,85,0.0,0.0,47,0.00,,,0.00,meteobridge,2014-12-19 21:04:00,
2014-12-19 14:09:00,63.0,42.4,30.12,East,85,0.0,0.0,47,0.00,,,0.00,meteobridge,2014-12-19 21:09:00,
2014-12-19 14:14:00,62.8,42.3,30.12,East,85,0.0,0.0,47,0.00,,,0.00,meteobridge,2014-12-19 21:14:00,
2014-12-19 14:19:00,62.4,42.4,30.12,East,85,0.0,1.0,48,0.00,,,0.00,meteobridge,2014-12-19 21:19:00,
2014-12-19 14:25:00,62.2,42.8,30.12,East,85,0.0,0.0,49,0.00,,,0.00,meteobridge,2014-12-19 21:25:00,
2014-12-19 14:30:00,62.1,42.6,30.12,East,85,0.0,0.0,49,0.00,,,0.00,meteobridge,2014-12-19 21:30:00,
2014-12-19 14:35:00,62.1,42.6,30.12,East,85,0.0,0.0,49,0.00,,,0.00,meteobridge,2014-12-19 21:35:00,
2014-12-19 14:40:00,62.1,42.6,30.12,East,85,0.0,0.0,49,0.00,,,0.00,meteobridge,2014-12-19 21:40:00,
2014-12-19 14:45:00,62.2,42.3,30.12,East,85,0.0,0.0,48,0.00,,,0.00,meteobridge,2014-12-19 21:45:00,
2014-12-19 14:50:00,62.8,42.8,30.12,East,85,0.0,0.0,48,0.00,,,0.00,meteobridge,2014-12-19 21:50:00,
2014-12-19 14:55:00,63.1,43.2,30.12,East,85,0.0,0.0,48,0.00,,,0.00,meteobridge,2014-12-19 21:55:00,
2014-12-19 15:01:00,63.5,43.0,30.12,East,85,0.0,0.0,47,0.00,,,0.00,meteobridge,2014-12-19 22:01:00,
2014-12-19 15:06:00,63.7,42.4,30.11,East,85,0.0,0.0,46,0.00,,,0.00,meteobridge,2014-12-19 22:06:00,
2014-12-19 15:12:00,63.9,42.6,30.11,East,85,0.0,0.0,46,0.00,,,0.00,meteobridge,2014-12-19 22:12:00,
2014-12-19 15:17:00,63.9,42.6,30.11,East,85,0.0,0.0,46,0.00,,,0.00,meteobridge,2014-12-19 22:17:00,
2014-12-19 15:22:00,63.9,42.1,30.11,East,85,0.0,0.0,45,0.00,,,0.00,meteobridge,2014-12-19 22:22:00,
2014-12-19 15:27:00,64.0,42.8,30.11,East,85,2.0,2.0,46,0.00,,,0.00,meteobridge,2014-12-19 22:27:00,
2014-12-19 15:32:00,63.9,42.6,30.11,East,85,4.0,4.0,46,0.00,,,0.00,meteobridge,2014-12-19 22:32:00,
2014-12-19 15:37:00,63.7,41.9,30.11,East,82,2.9,5.0,45,0.00,,,0.00,meteobridge,2014-12-19 22:37:00,
2014-12-19 15:42:00,63.7,39.6,30.11,East,82,0.0,0.0,41,0.00,,,0.00,meteobridge,2014-12-19 22:42:00,
2014-12-19 15:47:00,63.7,38.8,30.12,North,11,0.9,4.0,40,0.00,,,0.00,meteobridge,2014-12-19 22:47:00,
2014-12-19 15:53:00,63.1,37.8,30.12,NW,312,0.0,5.0,39,0.00,,,0.00,meteobridge,2014-12-19 22:53:00,
2014-12-19 15:58:00,63.0,38.8,30.12,West,271,4.9,8.0,41,0.00,,,0.00,meteobridge,2014-12-19 22:58:00,
2014-12-19 16:03:00,62.8,39.4,30.12,West,272,0.9,2.0,42,0.00,,,0.00,meteobridge,2014-12-19 23:03:00,
2014-12-19 16:08:00,62.2,38.3,30.12,WNW,282,0.0,6.0,41,0.00,,,0.00,meteobridge,2014-12-19 23:08:00,
2014-12-19 16:13:00,62.1,38.7,30.12,WNW,282,0.0,0.0,42,0.00,,,0.00,meteobridge,2014-12-19 23:13:00,
2014-12-19 16:18:00,61.7,37.8,30.12,WNW,282,2.9,4.0,41,0.00,,,0.00,meteobridge,2014-12-19 23:18:00,
2014-12-19 16:23:00,61.5,37.6,30.12,WNW,292,0.0,7.0,41,0.00,,,0.00,meteobridge,2014-12-19 23:23:00,
2014-12-19 16:28:00,61.5,37.6,30.12,WNW,293,0.0,3.0,41,0.00,,,0.00,meteobridge,2014-12-19 23:28:00,
2014-12-19 16:34:00,61.7,37.2,30.12,WNW,293,0.0,5.0,40,0.00,,,0.00,meteobridge,2014-12-19 23:34:00,
2014-12-19 16:39:00,61.9,37.2,30.12,WNW,293,2.0,3.0,40,0.00,,,0.00,meteobridge,2014-12-19 23:39:00,
2014-12-19 16:44:00,61.9,37.2,30.12,WNW,293,0.0,2.0,40,0.00,,,0.00,meteobridge,2014-12-19 23:44:00,
2014-12-19 16:50:00,61.7,37.8,30.12,WNW,293,2.9,4.0,41,0.00,,,0.00,meteobridge,2014-12-19 23:50:00,
2014-12-19 16:55:00,61.5,37.6,30.12,WNW,293,0.0,0.0,41,0.00,,,0.00,meteobridge,2014-12-19 23:55:00,
2014-12-19 17:00:00,61.2,37.9,30.12,WNW,293,0.0,0.0,42,0.00,,,0.00,meteobridge,2014-12-20 00:00:00,
2014-12-19 17:05:00,61.0,37.8,30.11,WNW,293,0.0,0.0,42,0.00,,,0.00,meteobridge,2014-12-20 00:05:00,
2014-12-19 17:10:00,60.6,37.4,30.11,WNW,293,2.9,3.0,42,0.00,,,0.00,meteobridge,2014-12-20 00:10:00,
2014-12-19 17:15:00,60.4,37.8,30.11,WNW,293,0.0,0.0,43,0.00,,,0.00,meteobridge,2014-12-20 00:15:00,
2014-12-19 17:20:00,60.1,38.1,30.12,WNW,293,0.0,2.0,44,0.00,,,0.00,meteobridge,2014-12-20 00:20:00,
2014-12-19 17:26:00,59.7,37.8,30.12,WNW,293,0.0,0.0,44,0.00,,,0.00,meteobridge,2014-12-20 00:26:00,
2014-12-19 17:31:00,59.4,37.9,30.12,WNW,293,0.0,0.0,45,0.00,,,0.00,meteobridge,2014-12-20 00:31:00,
2014-12-19 17:36:00,59.2,38.5,30.12,WNW,293,0.0,0.0,46,0.00,,,0.00,meteobridge,2014-12-20 00:36:00,
2014-12-19 17:42:00,59.2,38.5,30.12,WNW,293,0.0,0.0,46,0.00,,,0.00,meteobridge,2014-12-20 00:42:00,
2014-12-19 17:47:00,58.6,38.5,30.12,WNW,293,0.0,0.0,47,0.00,,,0.00,meteobridge,2014-12-20 00:47:00,
2014-12-19 17:53:00,58.5,38.8,30.12,WNW,293,0.0,2.0,48,0.00,,,0.00,meteobridge,2014-12-20 00:53:00,
2014-12-19 17:58:00,58.5,38.8,30.12,WNW,293,0.0,0.0,48,0.00,,,0.00,meteobridge,2014-12-20 00:58:00,
2014-12-19 18:03:00,58.3,39.2,30.12,WNW,293,0.0,0.0,49,0.00,,,0.00,meteobridge,2014-12-20 01:03:00,
2014-12-19 18:08:00,58.1,39.0,30.12,WNW,293,2.0,2.0,49,0.00,,,0.00,meteobridge,2014-12-20 01:08:00,
2014-12-19 18:14:00,57.9,39.4,30.12,WNW,293,0.0,0.0,50,0.00,,,0.00,meteobridge,2014-12-20 01:14:00,
2014-12-19 18:19:00,57.7,38.7,30.13,WNW,293,0.0,1.0,49,0.00,,,0.00,meteobridge,2014-12-20 01:19:00,
2014-12-19 18:24:00,57.6,39.0,30.13,WNW,293,0.0,0.0,50,0.00,,,0.00,meteobridge,2014-12-20 01:24:00,
2014-12-19 18:29:00,57.4,38.8,30.13,WNW,293,0.0,0.0,50,0.00,,,0.00,meteobridge,2014-12-20 01:29:00,
2014-12-19 18:34:00,57.0,39.0,30.13,WNW,293,0.0,0.0,51,0.00,,,0.00,meteobridge,2014-12-20 01:34:00,
2014-12-19 18:39:00,56.8,38.8,30.13,WNW,293,0.0,0.0,51,0.00,,,0.00,meteobridge,2014-12-20 01:39:00,
2014-12-19 18:44:00,56.8,38.8,30.13,WNW,293,0.0,0.0,51,0.00,,,0.00,meteobridge,2014-12-20 01:44:00,
2014-12-19 18:49:00,56.7,38.7,30.14,WNW,292,4.0,5.0,51,0.00,,,0.00,meteobridge,2014-12-20 01:49:00,
2014-12-19 18:55:00,56.7,39.2,30.14,WNW,292,0.0,0.0,52,0.00,,,0.00,meteobridge,2014-12-20 01:55:00,
2014-12-19 19:00:00,56.7,39.2,30.14,WNW,292,0.0,0.0,52,0.00,,,0.00,meteobridge,2014-12-20 02:00:00,
2014-12-19 19:05:00,56.5,39.0,30.14,WNW,292,0.9,2.0,52,0.00,,,0.00,meteobridge,2014-12-20 02:05:00,
2014-12-19 19:10:00,56.5,39.0,30.14,WNW,292,0.0,0.0,52,0.00,,,0.00,meteobridge,2014-12-20 02:10:00,
2014-12-19 19:15:00,56.3,39.4,30.14,WNW,292,0.0,3.0,53,0.00,,,0.00,meteobridge,2014-12-20 02:15:00,
2014-12-19 19:20:00,56.1,39.2,30.14,WNW,292,0.0,0.0,53,0.00,,,0.00,meteobridge,2014-12-20 02:20:00,
2014-12-19 19:25:00,55.9,39.6,30.14,WNW,292,0.0,0.0,54,0.00,,,0.00,meteobridge,2014-12-20 02:25:00,
2014-12-19 19:31:00,55.8,39.4,30.14,WNW,292,0.0,0.0,54,0.00,,,0.00,meteobridge,2014-12-20 02:31:00,
2014-12-19 19:36:00,55.6,39.2,30.14,WNW,292,0.0,0.0,54,0.00,,,0.00,meteobridge,2014-12-20 02:36:00,
2014-12-19 19:42:00,55.6,38.7,30.14,WNW,292,0.0,0.0,53,0.00,,,0.00,meteobridge,2014-12-20 02:42:00,
2014-12-19 19:47:00,55.8,38.5,30.14,WNW,292,0.0,0.0,52,0.00,,,0.00,meteobridge,2014-12-20 02:47:00,
2014-12-19 19:52:00,55.8,37.9,30.14,WNW,292,0.0,0.0,51,0.00,,,0.00,meteobridge,2014-12-20 02:52:00,
2014-12-19 19:57:00,55.8,37.4,30.14,WNW,292,2.0,5.0,50,0.00,,,0.00,meteobridge,2014-12-20 02:57:00,
2014-12-19 20:02:00,55.8,36.9,30.14,WNW,292,4.9,5.0,49,0.00,,,0.00,meteobridge,2014-12-20 03:02:00,
2014-12-19 20:07:00,55.9,36.5,30.14,WNW,292,0.0,0.0,48,0.00,,,0.00,meteobridge,2014-12-20 03:07:00,
2014-12-19 20:12:00,56.1,37.2,30.13,WNW,292,0.0,0.0,49,0.00,,,0.00,meteobridge,2014-12-20 03:12:00,
2014-12-19 20:17:00,56.1,37.2,30.14,WNW,292,0.0,0.0,49,0.00,,,0.00,meteobridge,2014-12-20 03:17:00,
2014-12-19 20:23:00,56.1,37.8,30.13,WNW,292,0.0,0.0,50,0.00,,,0.00,meteobridge,2014-12-20 03:23:00,
2014-12-19 20:28:00,56.1,37.8,30.13,WNW,292,0.0,0.0,50,0.00,,,0.00,meteobridge,2014-12-20 03:28:00,
2014-12-19 20:33:00,55.9,38.1,30.13,WNW,292,0.0,0.0,51,0.00,,,0.00,meteobridge,2014-12-20 03:33:00,
2014-12-19 20:38:00,55.8,37.9,30.13,WNW,292,0.0,0.0,51,0.00,,,0.00,meteobridge,2014-12-20 03:38:00,
2014-12-19 20:43:00,55.6,37.8,30.13,WNW,292,0.0,0.0,51,0.00,,,0.00,meteobridge,2014-12-20 03:43:00,
2014-12-19 20:48:00,55.2,37.9,30.13,WNW,292,0.0,0.0,52,0.00,,,0.00,meteobridge,2014-12-20 03:48:00,
2014-12-19 20:54:00,54.9,37.6,30.13,WNW,292,0.0,0.0,52,0.00,,,0.00,meteobridge,2014-12-20 03:54:00,
2014-12-19 20:59:00,54.3,37.9,30.13,WNW,292,0.0,0.0,54,0.00,,,0.00,meteobridge,2014-12-20 03:59:00,
2014-12-19 21:05:00,54.1,37.9,30.13,WNW,292,0.0,0.0,54,0.00,,,0.00,meteobridge,2014-12-20 04:05:00,
2014-12-19 21:10:00,53.8,38.5,30.13,WNW,292,0.0,0.0,56,0.00,,,0.00,meteobridge,2014-12-20 04:10:00,